Japanese version Home page |
Updated on April 29, 2014 |
|
Orbital ElementsEpoch 2013 Aug. 16.0 TT = JDT 2456520.5 T 2013 July 28.46852 TT MPC q 1.3940107 (2000.0) P Q n 0.14909202 Peri. 78.06398 +0.99696792 +0.07304267 a 3.5223550 Node 277.74294 -0.07766539 +0.91278951 e 0.6042390 Incl. 1.55145 -0.00480047 +0.40184585 P 6.61 From 206 observations 1986 Dec. 2-2013 Dec. 12, mean residual 0".7.
|
Finding Charts
|
Magnitudes Graphm1 = 16.0 + 5 log d + 10.0 log r(t - 100) * Gray curve is: m1 = 14.5 + 5 log d + 10.0 log r
|
The orbital elements are published on M.P.E.C. 2013-X73.
|